Regional Weather Roundup
Issued by NWS

Home | Current Version | Previous Version | Graphics & Text | Print | Product List | Glossary On
Versions: 1 2 3 4 5 6 7 8 9 10 11 12 13 14 15 16 17 18 19 20 21 22 23 24 25 26 27 28 29 30 31 32 33 34 35 36 37 38 39 40 41 42 43 44 45 46 47 48 49 50
000
ASUS43 KLSX 310007
RWRMO

WEATHER SUMMARY FOR MISSOURI
NATIONAL WEATHER SERVICE SPRINGFIELD MO
700 PM CDT SAT AUG 30 2014

NOTE: "FAIR" INDICATES FEW OR NO CLOUDS BELOW 12,000 FEET WITH NO
       SIGNIFICANT WEATHER AND/OR OBSTRUCTIONS TO VISIBILITY.
       CURRENT SKY AND/OR WEATHER CONDITIONS ARE NOT AVAILABLE FOR
       CHILLICOTHE AND FARMINGTON.

MOZ001>031-035>038-043-044-053-054-310100-
...NORTHERN AND WESTERN MISSOURI...

CITY           SKY/WX    TMP DP  RH WIND       PRES   REMARKS
KANSAS CTY INT PTCLDY    83  67  58 SW5       29.89R
6HR MIN TEMP:  82; 6HR MAX TEMP:  87;

KANSAS C DTWN  CLEAR     87  63  44 CALM      29.87S
6HR MIN TEMP:  84; 6HR MAX TEMP:  89;

LEE`S SUMMIT   CLEAR     83  67  58 E7        29.90R
6HR MIN TEMP:  82; 6HR MAX TEMP:  88;

ST JOSEPH      CLEAR     83  68  60 SW3       29.88R
6HR MIN TEMP:  81; 6HR MAX TEMP:  87;

CHILLICOTHE      N/A     83  71  67 CALM      29.89S
6HR MIN TEMP:  82; 6HR MAX TEMP:  87;

KIRKSVILLE     CLEAR     82  69  64 W3        29.90S
6HR MIN TEMP:  80; 6HR MAX TEMP:  86;


$$
MOZ066>068-077>081-088>096-101>105-310100-
...SOUTHWEST MISSOURI...

CITY           SKY/WX    TMP DP  RH WIND       PRES   REMARKS
SPRINGFIELD    MOCLDY    74  69  85 S13G20    29.92F
6HR MIN TEMP:  69; 6HR MAX TEMP:  91; 6HR PCP:  0.73;

JOPLIN         PTCLDY    84  68  58 SE10      29.89R
6HR MIN TEMP:  84; 6HR MAX TEMP:  93;


$$
MOZ032>034-039>042-045>050-055>058-069>072-310100-
...CENTRAL MISSOURI...

CITY           SKY/WX    TMP DP  RH WIND       PRES   REMARKS
COLUMBIA       MOCLDY    80  71  74 S12       29.90R
6HR MIN TEMP:  75; 6HR MAX TEMP:  91; 6HR PCP:  0.06;

JEFFERSON CITY CLOUDY    78  68  71 E5        29.89S
6HR MIN TEMP:  78; 6HR MAX TEMP:  90;

ROLLA          CLOUDY    71  67  87 S9        29.91F
6HR MIN TEMP:  68; 6HR MAX TEMP:  83; 6HR PCP:  1.07;

SEDALIA        PTCLDY    87  65  47 CALM      29.90S
6HR MIN TEMP:  86; 6HR MAX TEMP:  90;

WHITEMAN AFB   CLEAR     85  67  55 N2        29.89R
OSAGE BEACH    CLOUDY    79  66  65 S5        29.90F

$$
MOZ051-052-059>065-310100-
...EAST CENTRAL MISSOURI...

CITY           SKY/WX    TMP DP  RH WIND       PRES   REMARKS
ST LOUIS INTL  CLOUDY    81  73  76 S7        29.91S
6HR MIN TEMP:  77; 6HR MAX TEMP:  88; 6HR PCP:  0.16;

SPIRIT OF STL  CLOUDY    81  73  76 CALM      29.89S
6HR MIN TEMP:  81; 6HR MAX TEMP:  86;

ST CHARLES     CLOUDY    81  71  71 S9        29.89R
6HR MIN TEMP:  81; 6HR MAX TEMP:  86;


$$
MOZ072>076-082>087-097>100-106>115-310100-
...SOUTH CENTRAL AND SOUTHEAST MISSOURI...

CITY           SKY/WX    TMP DP  RH WIND       PRES   REMARKS
CAPE GIRARDEAU CLOUDY    77  69  76 S9        29.97S
6HR MIN TEMP:  77; 6HR MAX TEMP:  81; 6HR PCP:  0.11;

FARMINGTON     CLOUDY    79  70  73 S14G23    29.98R
6HR MIN TEMP:  79; 6HR MAX TEMP:  84;

POPLAR BLUFF   CLOUDY    78  69  73 S6        29.97R
6HR MIN TEMP:  78; 6HR MAX TEMP:  84;

WEST PLAINS    MOCLDY    79  68  69 SW7       29.97F
6HR MIN TEMP:  79; 6HR MAX TEMP:  84;


$$


USA.gov is the U.S. government's official web portal to all federal, state and local government web resources and services.